Location: Asheville, NC
(35.6000°N, 82.5500°W)
Time: 18:24:31
(UTC-04:00)

XW-2D - Pass Details

Date: 09 January 2018
Orbit: 511 x 528 km, 97.5° (Epoch: 20 July)

Event Time Altitude Azimuth Distance (km) Brightness Sun altitude
Rises 18:33:31 0° 195° (SSW) 2,649 ? -11.8°
Reaches altitude 10° 18:35:55 10° 210° (SSW) 1,766 ? -12.3°
Maximum altitude 18:39:00 23° 264° (W) 1,149 ? -12.9°
Drops below altitude 10° 18:42:06 10° 318° (NW) 1,777 ? -13.5°
Sets 18:44:33 0° 333° (NNW) 2,671 ? -14.0°
